Time,TemperatureF,DewpointF,PressureIn,WindDirection,WindDirectionDegrees,WindSpeedMPH,WindSpeedGustMPH,Humidity,HourlyPrecipIn,Conditions,Clouds,dailyrainin,SoftwareType,DateUTC
2013-04-29 00:01:00,53.7,52.9,30.05,NNW,341,0.0,0.0,97,0.00,,,0.00,Wunderground v.1.13,2013-04-29 04:01:00,
2013-04-29 00:02:00,53.7,52.9,30.05,NNW,341,0.0,0.0,97,0.00,,,0.00,Wunderground v.1.13,2013-04-29 04:02:00,
2013-04-29 00:04:00,53.7,52.9,30.05,NNW,341,0.0,0.0,97,0.00,,,0.00,Wunderground v.1.13,2013-04-29 04:04:00,
2013-04-29 00:07:00,53.7,52.9,30.05,NNW,341,0.0,0.0,97,0.00,,,0.00,Wunderground v.1.13,2013-04-29 04:07:00,
2013-04-29 00:12:00,53.7,52.9,30.05,NNW,341,0.0,0.0,97,0.00,,,0.00,Wunderground v.1.13,2013-04-29 04:12:00,
2013-04-29 00:15:00,53.7,52.9,30.05,NNW,341,0.0,0.0,97,0.00,,,0.00,Wunderground v.1.13,2013-04-29 04:15:00,
2013-04-29 00:20:00,53.8,53.0,30.05,NNW,341,0.0,0.0,97,0.00,,,0.00,Wunderground v.1.13,2013-04-29 04:20:00,
2013-04-29 00:26:00,53.8,53.0,30.05,NNW,341,0.0,0.0,97,0.00,,,0.00,Wunderground v.1.13,2013-04-29 04:26:00,
2013-04-29 00:31:00,53.8,53.0,30.05,NNW,341,0.0,0.0,97,0.00,,,0.00,Wunderground v.1.13,2013-04-29 04:31:00,
2013-04-29 00:37:00,53.8,53.0,30.05,NNW,341,0.0,0.0,97,0.00,,,0.00,Wunderground v.1.13,2013-04-29 04:37:00,
2013-04-29 00:43:00,53.9,53.1,30.05,NNW,341,0.0,0.0,97,0.00,,,0.00,Wunderground v.1.13,2013-04-29 04:43:00,
2013-04-29 00:48:00,53.9,53.1,30.04,NNW,341,0.0,0.0,97,0.00,,,0.00,Wunderground v.1.13,2013-04-29 04:48:00,
2013-04-29 00:54:00,53.9,53.1,30.04,NNW,341,0.0,0.0,97,0.00,,,0.00,Wunderground v.1.13,2013-04-29 04:54:00,
2013-04-29 00:59:00,53.9,53.1,30.04,NNW,341,0.0,0.0,97,0.00,,,0.00,Wunderground v.1.13,2013-04-29 04:59:00,
2013-04-29 01:04:00,53.8,53.0,30.04,NNW,341,0.0,0.0,97,0.00,,,0.00,Wunderground v.1.13,2013-04-29 05:04:00,
2013-04-29 01:10:00,53.7,52.9,30.05,NNW,341,0.0,0.0,97,0.00,,,0.00,Wunderground v.1.13,2013-04-29 05:10:00,
2013-04-29 01:16:00,53.5,52.7,30.04,NNW,341,0.0,0.0,97,0.00,,,0.00,Wunderground v.1.13,2013-04-29 05:16:00,
2013-04-29 01:21:00,53.4,52.6,30.05,NNW,341,0.0,0.0,97,0.00,,,0.00,Wunderground v.1.13,2013-04-29 05:21:00,
2013-04-29 01:27:00,53.3,52.5,30.04,NNW,341,0.0,0.0,97,0.00,,,0.00,Wunderground v.1.13,2013-04-29 05:27:00,
2013-04-29 01:33:00,53.2,52.4,30.04,NNW,341,0.0,0.0,97,0.00,,,0.00,Wunderground v.1.13,2013-04-29 05:33:00,
2013-04-29 01:38:00,53.2,52.4,30.04,NNW,341,0.0,0.0,97,0.00,,,0.00,Wunderground v.1.13,2013-04-29 05:38:00,
2013-04-29 01:44:00,53.0,52.2,30.04,NNW,341,0.0,0.0,97,0.00,,,0.00,Wunderground v.1.13,2013-04-29 05:44:00,
2013-04-29 01:50:00,52.8,51.7,30.04,NNW,341,0.0,0.0,96,0.00,,,0.00,Wunderground v.1.13,2013-04-29 05:50:00,
2013-04-29 01:55:00,52.7,51.9,30.04,NNW,341,0.0,0.0,97,0.00,,,0.00,Wunderground v.1.13,2013-04-29 05:55:00,
2013-04-29 02:01:00,52.5,51.7,30.04,NNW,341,0.0,0.0,97,0.00,,,0.00,Wunderground v.1.13,2013-04-29 06:01:00,
2013-04-29 02:07:00,52.3,51.2,30.04,NNW,341,0.0,0.0,96,0.00,,,0.00,Wunderground v.1.13,2013-04-29 06:07:00,
2013-04-29 02:12:00,52.2,51.4,30.04,NNW,341,0.0,0.0,97,0.00,,,0.00,Wunderground v.1.13,2013-04-29 06:12:00,
2013-04-29 02:18:00,52.1,51.3,30.05,NNW,341,0.0,0.0,97,0.00,,,0.00,Wunderground v.1.13,2013-04-29 06:18:00,
2013-04-29 02:24:00,52.1,51.3,30.04,NNW,341,0.0,0.0,97,0.00,,,0.00,Wunderground v.1.13,2013-04-29 06:24:00,
2013-04-29 02:29:00,52.1,51.3,30.04,NNW,341,0.0,0.0,97,0.00,,,0.00,Wunderground v.1.13,2013-04-29 06:29:00,
2013-04-29 02:34:00,52.1,51.3,30.04,NNW,341,0.0,0.0,97,0.00,,,0.00,Wunderground v.1.13,2013-04-29 06:34:00,
2013-04-29 02:40:00,52.2,51.4,30.04,NNW,341,0.0,0.0,97,0.00,,,0.00,Wunderground v.1.13,2013-04-29 06:40:00,
2013-04-29 02:45:00,52.3,51.5,30.04,NNW,341,0.0,0.0,97,0.00,,,0.00,Wunderground v.1.13,2013-04-29 06:45:00,
2013-04-29 02:51:00,52.3,51.5,30.03,NNW,341,0.0,0.0,97,0.00,,,0.00,Wunderground v.1.13,2013-04-29 06:51:00,
2013-04-29 02:57:00,52.2,51.4,30.03,NNW,341,0.0,0.0,97,0.00,,,0.00,Wunderground v.1.13,2013-04-29 06:57:00,
2013-04-29 03:02:00,52.2,51.4,30.04,NNW,341,0.0,0.0,97,0.00,,,0.00,Wunderground v.1.13,2013-04-29 07:02:00,
2013-04-29 03:08:00,52.2,51.4,30.04,NNW,341,0.0,0.0,97,0.00,,,0.00,Wunderground v.1.13,2013-04-29 07:08:00,
2013-04-29 03:14:00,52.2,51.4,30.04,NNW,341,0.0,0.0,97,0.00,,,0.00,Wunderground v.1.13,2013-04-29 07:14:00,
2013-04-29 03:19:00,52.2,51.4,30.04,NNW,341,0.0,0.0,97,0.00,,,0.00,Wunderground v.1.13,2013-04-29 07:19:00,
2013-04-29 03:25:00,52.2,51.4,30.03,NNW,341,0.0,0.0,97,0.00,,,0.00,Wunderground v.1.13,2013-04-29 07:25:00,
2013-04-29 03:30:00,52.4,51.6,30.03,NNW,341,0.0,0.0,97,0.00,,,0.00,Wunderground v.1.13,2013-04-29 07:30:00,
2013-04-29 03:36:00,52.4,51.6,30.03,NNW,341,0.0,0.0,97,0.00,,,0.00,Wunderground v.1.13,2013-04-29 07:36:00,
2013-04-29 03:41:00,52.4,51.6,30.04,NNW,341,0.0,0.0,97,0.00,,,0.00,Wunderground v.1.13,2013-04-29 07:41:00,
2013-04-29 03:46:00,52.5,51.7,30.04,NNW,341,0.0,0.0,97,0.00,,,0.00,Wunderground v.1.13,2013-04-29 07:46:00,
2013-04-29 03:52:00,52.5,51.7,30.04,NNW,341,0.0,0.0,97,0.00,,,0.00,Wunderground v.1.13,2013-04-29 07:52:00,
2013-04-29 03:58:00,52.5,51.7,30.04,NNW,341,0.0,0.0,97,0.00,,,0.00,Wunderground v.1.13,2013-04-29 07:58:00,
2013-04-29 04:04:00,52.5,51.7,30.04,NNW,341,0.0,0.0,97,0.00,,,0.00,Wunderground v.1.13,2013-04-29 08:04:00,
2013-04-29 04:09:00,52.5,51.7,30.04,NNW,341,0.0,0.0,97,0.00,,,0.00,Wunderground v.1.13,2013-04-29 08:09:00,
2013-04-29 04:15:00,52.4,51.6,30.04,NNW,341,0.0,0.0,97,0.00,,,0.00,Wunderground v.1.13,2013-04-29 08:15:00,
2013-04-29 04:21:00,52.4,51.6,30.04,NNW,341,0.0,0.0,97,0.00,,,0.00,Wunderground v.1.13,2013-04-29 08:21:00,
2013-04-29 04:26:00,52.2,51.4,30.04,NNW,341,0.0,0.0,97,0.00,,,0.00,Wunderground v.1.13,2013-04-29 08:26:00,
2013-04-29 04:32:00,52.0,51.2,30.04,NNW,341,0.0,0.0,97,0.00,,,0.00,Wunderground v.1.13,2013-04-29 08:32:00,
2013-04-29 04:38:00,51.8,51.0,30.03,NNW,341,0.0,0.0,97,0.00,,,0.00,Wunderground v.1.13,2013-04-29 08:38:00,
2013-04-29 04:43:00,51.5,50.7,30.03,NNW,341,0.0,0.0,97,0.00,,,0.00,Wunderground v.1.13,2013-04-29 08:43:00,
2013-04-29 04:49:00,51.3,50.5,30.04,NNW,341,0.0,0.0,97,0.00,,,0.00,Wunderground v.1.13,2013-04-29 08:49:00,
2013-04-29 04:54:00,51.1,50.3,30.03,NNW,341,0.0,0.0,97,0.00,,,0.00,Wunderground v.1.13,2013-04-29 08:54:00,
2013-04-29 05:00:00,50.9,50.1,30.03,NNW,341,0.0,0.0,97,0.00,,,0.00,Wunderground v.1.13,2013-04-29 09:00:00,
2013-04-29 05:06:00,50.6,49.8,30.03,NNW,341,0.0,0.0,97,0.00,,,0.00,Wunderground v.1.13,2013-04-29 09:06:00,
2013-04-29 05:12:00,50.3,49.5,30.03,NNW,341,0.0,0.0,97,0.00,,,0.00,Wunderground v.1.13,2013-04-29 09:12:00,
2013-04-29 05:17:00,50.0,49.2,30.03,NNW,341,0.0,0.0,97,0.00,,,0.00,Wunderground v.1.13,2013-04-29 09:17:00,
2013-04-29 05:23:00,49.8,49.0,30.04,NNW,341,0.0,0.0,97,0.00,,,0.00,Wunderground v.1.13,2013-04-29 09:23:00,
2013-04-29 05:28:00,49.5,48.7,30.04,NNW,341,0.0,0.0,97,0.00,,,0.00,Wunderground v.1.13,2013-04-29 09:28:00,
2013-04-29 05:33:00,49.3,48.2,30.04,NNW,341,0.0,0.0,96,0.00,,,0.00,Wunderground v.1.13,2013-04-29 09:33:00,
2013-04-29 05:39:00,49.2,48.4,30.03,NNW,341,0.0,0.0,97,0.00,,,0.00,Wunderground v.1.13,2013-04-29 09:39:00,
2013-04-29 05:44:00,48.9,48.1,30.03,NNW,341,0.0,0.0,97,0.00,,,0.00,Wunderground v.1.13,2013-04-29 09:44:00,
2013-04-29 05:50:00,48.8,48.0,30.03,NNW,341,0.0,0.0,97,0.00,,,0.00,Wunderground v.1.13,2013-04-29 09:50:00,
2013-04-29 05:56:00,48.7,47.9,30.03,NNW,341,0.0,0.0,97,0.00,,,0.00,Wunderground v.1.13,2013-04-29 09:56:00,
2013-04-29 06:02:00,48.6,47.8,30.04,NNW,341,0.0,1.0,97,0.00,,,0.00,Wunderground v.1.13,2013-04-29 10:02:00,
2013-04-29 06:07:00,48.4,47.6,30.04,NNW,341,0.0,0.0,97,0.00,,,0.00,Wunderground v.1.13,2013-04-29 10:07:00,
2013-04-29 06:13:00,48.3,47.5,30.05,NNW,341,0.0,0.0,97,0.00,,,0.00,Wunderground v.1.13,2013-04-29 10:13:00,
2013-04-29 06:19:00,48.1,47.0,30.05,NNW,341,0.0,0.0,96,0.00,,,0.00,Wunderground v.1.13,2013-04-29 10:19:00,
2013-04-29 06:24:00,48.0,46.9,30.05,NNW,341,0.0,0.0,96,0.00,,,0.00,Wunderground v.1.13,2013-04-29 10:24:00,
2013-04-29 06:30:00,47.8,47.0,30.05,NNW,341,0.0,0.0,97,0.00,,,0.00,Wunderground v.1.13,2013-04-29 10:30:00,
2013-04-29 06:36:00,47.8,47.0,30.05,NNW,341,0.0,0.0,97,0.00,,,0.00,Wunderground v.1.13,2013-04-29 10:36:00,
2013-04-29 06:42:00,47.8,47.0,30.06,NNW,341,0.0,0.0,97,0.00,,,0.01,Wunderground v.1.13,2013-04-29 10:42:00,
2013-04-29 06:47:00,47.7,46.9,30.06,NNW,341,0.0,0.0,97,0.00,,,0.01,Wunderground v.1.13,2013-04-29 10:47:00,
2013-04-29 06:53:00,47.7,46.9,30.06,NNW,341,0.0,0.0,97,0.00,,,0.01,Wunderground v.1.13,2013-04-29 10:53:00,
2013-04-29 06:58:00,47.6,46.8,30.07,NNW,341,0.0,0.0,97,0.00,,,0.01,Wunderground v.1.13,2013-04-29 10:58:00,
2013-04-29 07:03:00,47.6,46.8,30.07,NNW,341,0.0,0.0,97,0.00,,,0.01,Wunderground v.1.13,2013-04-29 11:03:00,
2013-04-29 07:09:00,47.6,46.8,30.07,NNW,341,0.0,0.0,97,0.00,,,0.01,Wunderground v.1.13,2013-04-29 11:09:00,
2013-04-29 07:14:00,47.7,46.9,30.07,NNW,341,0.0,0.0,97,0.00,,,0.01,Wunderground v.1.13,2013-04-29 11:14:00,
2013-04-29 07:20:00,47.8,47.0,30.07,NNW,341,0.0,0.0,97,0.00,,,0.01,Wunderground v.1.13,2013-04-29 11:20:00,
2013-04-29 07:26:00,48.0,47.2,30.07,NNW,341,0.0,0.0,97,0.00,,,0.01,Wunderground v.1.13,2013-04-29 11:26:00,
2013-04-29 07:31:00,48.3,47.5,30.07,NNW,341,0.0,0.0,97,0.00,,,0.01,Wunderground v.1.13,2013-04-29 11:31:00,
2013-04-29 07:37:00,48.9,48.1,30.07,NNW,341,0.0,0.0,97,0.00,,,0.01,Wunderground v.1.13,2013-04-29 11:37:00,
2013-04-29 07:43:00,49.3,48.8,30.07,NNW,341,0.0,0.0,98,0.00,,,0.01,Wunderground v.1.13,2013-04-29 11:43:00,
2013-04-29 07:49:00,50.1,49.6,30.07,NNW,341,0.0,0.0,98,0.00,,,0.01,Wunderground v.1.13,2013-04-29 11:49:00,
2013-04-29 07:54:00,50.8,50.3,30.07,NNW,341,0.0,0.0,98,0.00,,,0.01,Wunderground v.1.13,2013-04-29 11:54:00,
2013-04-29 08:00:00,51.7,51.2,30.07,NNW,341,0.0,0.0,98,0.00,,,0.01,Wunderground v.1.13,2013-04-29 12:00:00,
2013-04-29 08:05:00,51.9,51.4,30.08,NNW,341,0.0,0.0,98,0.00,,,0.01,Wunderground v.1.13,2013-04-29 12:05:00,
2013-04-29 08:10:00,52.2,51.7,30.08,NNW,341,0.0,0.0,98,0.00,,,0.01,Wunderground v.1.13,2013-04-29 12:10:00,
2013-04-29 08:16:00,52.4,51.9,30.08,NNW,341,0.0,0.0,98,0.00,,,0.01,Wunderground v.1.13,2013-04-29 12:16:00,
2013-04-29 08:21:00,52.8,52.3,30.08,NNW,341,0.0,0.0,98,0.00,,,0.01,Wunderground v.1.13,2013-04-29 12:21:00,
2013-04-29 08:27:00,53.1,52.6,30.08,NNW,341,0.0,0.0,98,0.00,,,0.01,Wunderground v.1.13,2013-04-29 12:27:00,
2013-04-29 08:32:00,53.3,52.8,30.08,NNW,341,0.0,0.0,98,0.00,,,0.01,Wunderground v.1.13,2013-04-29 12:32:00,
2013-04-29 08:38:00,53.7,53.1,30.08,NNW,341,0.0,0.0,98,0.00,,,0.01,Wunderground v.1.13,2013-04-29 12:38:00,
2013-04-29 08:43:00,54.0,53.4,30.08,NNW,341,0.0,0.0,98,0.00,,,0.01,Wunderground v.1.13,2013-04-29 12:43:00,
2013-04-29 08:49:00,54.3,53.7,30.09,NNW,341,0.0,0.0,98,0.00,,,0.01,Wunderground v.1.13,2013-04-29 12:49:00,
2013-04-29 08:55:00,54.7,54.1,30.09,NNW,341,0.0,0.0,98,0.00,,,0.01,Wunderground v.1.13,2013-04-29 12:55:00,
2013-04-29 09:00:00,55.1,54.5,30.09,NNW,341,0.0,0.0,98,0.00,,,0.01,Wunderground v.1.13,2013-04-29 13:00:00,
2013-04-29 09:06:00,55.3,54.7,30.09,NNW,341,0.0,0.0,98,0.00,,,0.01,Wunderground v.1.13,2013-04-29 13:06:00,
2013-04-29 09:12:00,55.7,55.1,30.09,NNW,341,0.0,0.0,98,0.00,,,0.01,Wunderground v.1.13,2013-04-29 13:12:00,
2013-04-29 09:18:00,56.0,55.4,30.09,NNW,341,0.0,0.0,98,0.00,,,0.01,Wunderground v.1.13,2013-04-29 13:18:00,
2013-04-29 09:23:00,56.3,55.7,30.09,NNW,341,0.0,0.0,98,0.00,,,0.01,Wunderground v.1.13,2013-04-29 13:23:00,
2013-04-29 09:29:00,56.3,55.7,30.09,NNW,341,0.0,0.0,98,0.00,,,0.01,Wunderground v.1.13,2013-04-29 13:29:00,
2013-04-29 09:34:00,56.3,55.7,30.09,NNW,341,0.0,0.0,98,0.00,,,0.01,Wunderground v.1.13,2013-04-29 13:34:00,
2013-04-29 09:39:00,56.4,55.8,30.09,NNW,341,0.0,0.0,98,0.00,,,0.01,Wunderground v.1.13,2013-04-29 13:39:00,
2013-04-29 09:45:00,56.5,55.9,30.09,NNW,341,0.0,0.0,98,0.00,,,0.01,Wunderground v.1.13,2013-04-29 13:45:00,
2013-04-29 09:50:00,56.4,55.8,30.09,NNW,341,0.0,0.0,98,0.00,,,0.01,Wunderground v.1.13,2013-04-29 13:50:00,
2013-04-29 09:56:00,56.5,55.9,30.09,NNW,341,1.0,1.0,98,0.00,,,0.01,Wunderground v.1.13,2013-04-29 13:56:00,
2013-04-29 10:01:00,56.6,56.0,30.09,NNW,341,1.0,1.0,98,0.00,,,0.01,Wunderground v.1.13,2013-04-29 14:01:00,
2013-04-29 10:07:00,57.0,56.4,30.09,NNW,341,1.0,3.0,98,0.00,,,0.01,Wunderground v.1.13,2013-04-29 14:07:00,
2013-04-29 10:12:00,57.1,56.5,30.09,NNW,341,2.0,4.0,98,0.00,,,0.01,Wunderground v.1.13,2013-04-29 14:12:00,
2013-04-29 10:18:00,57.7,57.1,30.09,NNW,341,2.0,4.0,98,0.00,,,0.01,Wunderground v.1.13,2013-04-29 14:18:00,
2013-04-29 10:24:00,58.1,57.5,30.09,NW,321,3.0,6.0,98,0.00,,,0.01,Wunderground v.1.13,2013-04-29 14:24:00,
2013-04-29 10:29:00,58.1,57.5,30.09,NW,311,3.0,4.0,98,0.00,,,0.01,Wunderground v.1.13,2013-04-29 14:29:00,
2013-04-29 10:34:00,58.2,57.6,30.09,NW,311,3.0,4.0,98,0.00,,,0.01,Wunderground v.1.13,2013-04-29 14:34:00,
2013-04-29 10:40:00,58.5,57.9,30.09,NW,311,2.0,4.0,98,0.00,,,0.01,Wunderground v.1.13,2013-04-29 14:40:00,
2013-04-29 10:45:00,58.6,57.8,30.09,NW,311,2.0,3.0,97,0.00,,,0.01,Wunderground v.1.13,2013-04-29 14:45:00,
2013-04-29 10:51:00,58.7,57.9,30.09,NW,311,2.0,2.0,97,0.00,,,0.01,Wunderground v.1.13,2013-04-29 14:51:00,
2013-04-29 10:56:00,59.0,58.2,30.09,NW,311,1.0,2.0,97,0.00,,,0.01,Wunderground v.1.13,2013-04-29 14:56:00,
2013-04-29 11:01:00,59.0,57.9,30.09,NW,311,2.0,2.0,96,0.00,,,0.01,Wunderground v.1.13,2013-04-29 15:01:00,
2013-04-29 11:07:00,59.4,58.3,30.09,NW,311,1.0,2.0,96,0.00,,,0.01,Wunderground v.1.13,2013-04-29 15:07:00,
2013-04-29 11:13:00,60.0,58.6,30.09,NW,311,1.0,2.0,95,0.00,,,0.01,Wunderground v.1.13,2013-04-29 15:13:00,
2013-04-29 11:18:00,60.4,58.7,30.09,NW,311,2.0,5.0,94,0.00,,,0.01,Wunderground v.1.13,2013-04-29 15:18:00,
2013-04-29 11:24:00,60.8,58.5,30.09,NW,311,3.0,5.0,92,0.00,,,0.01,Wunderground v.1.13,2013-04-29 15:24:00,
2013-04-29 11:29:00,61.1,58.5,30.09,NW,311,3.0,4.0,91,0.00,,,0.01,Wunderground v.1.13,2013-04-29 15:29:00,
2013-04-29 11:35:00,61.2,57.9,30.09,NW,305,4.0,4.0,89,0.00,,,0.01,Wunderground v.1.13,2013-04-29 15:35:00,
2013-04-29 11:41:00,61.6,58.0,30.09,WNW,286,3.0,4.0,88,0.00,,,0.01,Wunderground v.1.13,2013-04-29 15:41:00,
2013-04-29 11:46:00,62.3,58.1,30.09,WNW,286,3.0,7.0,86,0.00,,,0.01,Wunderground v.1.13,2013-04-29 15:46:00,
2013-04-29 11:52:00,62.9,58.6,30.09,WNW,286,4.0,7.0,86,0.00,,,0.01,Wunderground v.1.13,2013-04-29 15:52:00,
2013-04-29 11:58:00,63.7,58.4,30.09,West,281,5.0,7.0,83,0.00,,,0.01,Wunderground v.1.13,2013-04-29 15:58:00,
2013-04-29 12:04:00,64.8,58.8,30.09,WSW,249,4.0,6.0,81,0.00,,,0.01,Wunderground v.1.13,2013-04-29 16:04:00,
2013-04-29 12:09:00,65.3,58.6,30.09,WNW,294,4.0,7.0,79,0.00,,,0.01,Wunderground v.1.13,2013-04-29 16:09:00,
2013-04-29 12:15:00,64.9,58.2,30.09,WNW,288,5.0,5.0,79,0.00,,,0.01,Wunderground v.1.13,2013-04-29 16:15:00,
2013-04-29 12:21:00,65.1,58.8,30.09,WNW,290,4.0,4.0,80,0.00,,,0.01,Wunderground v.1.13,2013-04-29 16:21:00,
2013-04-29 12:27:00,65.2,58.5,30.09,WNW,289,5.0,6.0,79,0.00,,,0.01,Wunderground v.1.13,2013-04-29 16:27:00,
2013-04-29 12:33:00,65.5,58.8,30.08,WNW,289,4.0,4.0,79,0.00,,,0.01,Wunderground v.1.13,2013-04-29 16:33:00,
2013-04-29 12:39:00,65.6,58.6,30.08,WNW,290,4.0,5.0,78,0.00,,,0.01,Wunderground v.1.13,2013-04-29 16:39:00,
2013-04-29 12:44:00,65.7,58.7,30.08,WNW,290,4.0,5.0,78,0.00,,,0.01,Wunderground v.1.13,2013-04-29 16:44:00,
2013-04-29 12:50:00,65.4,58.0,30.08,WNW,302,6.0,6.0,77,0.00,,,0.01,Wunderground v.1.13,2013-04-29 16:50:00,
2013-04-29 12:56:00,64.6,57.9,30.08,WNW,301,6.0,7.0,79,0.00,,,0.01,Wunderground v.1.13,2013-04-29 16:56:00,
2013-04-29 13:01:00,64.6,58.3,30.08,WNW,289,5.0,6.0,80,0.00,,,0.01,Wunderground v.1.13,2013-04-29 17:01:00,
2013-04-29 13:07:00,64.9,58.9,30.08,WNW,292,5.0,5.0,81,0.00,,,0.01,Wunderground v.1.13,2013-04-29 17:07:00,
2013-04-29 13:13:00,64.9,58.2,30.07,WNW,292,5.0,6.0,79,0.00,,,0.01,Wunderground v.1.13,2013-04-29 17:13:00,
2013-04-29 13:19:00,65.0,58.0,30.07,WNW,290,4.0,6.0,78,0.00,,,0.01,Wunderground v.1.13,2013-04-29 17:19:00,
2013-04-29 13:24:00,65.0,58.3,30.07,WNW,290,4.0,6.0,79,0.00,,,0.01,Wunderground v.1.13,2013-04-29 17:24:00,
2013-04-29 13:30:00,65.7,59.0,30.07,WNW,288,4.0,4.0,79,0.00,,,0.01,Wunderground v.1.13,2013-04-29 17:30:00,
2013-04-29 13:36:00,66.4,58.6,30.06,WNW,293,4.0,7.0,76,0.00,,,0.01,Wunderground v.1.13,2013-04-29 17:36:00,
2013-04-29 13:41:00,66.8,58.6,30.06,WNW,288,4.0,5.0,75,0.00,,,0.01,Wunderground v.1.13,2013-04-29 17:41:00,
2013-04-29 13:47:00,67.5,58.9,30.06,NW,305,5.0,11.0,74,0.00,,,0.01,Wunderground v.1.13,2013-04-29 17:47:00,
2013-04-29 13:53:00,67.4,58.1,30.06,NW,308,7.0,9.0,72,0.00,,,0.01,Wunderground v.1.13,2013-04-29 17:53:00,
2013-04-29 13:58:00,67.0,58.1,30.06,WNW,290,7.0,9.0,73,0.00,,,0.01,Wunderground v.1.13,2013-04-29 17:58:00,
2013-04-29 14:03:00,67.5,58.9,30.06,WNW,289,6.0,9.0,74,0.00,,,0.01,Wunderground v.1.13,2013-04-29 18:03:00,
2013-04-29 14:09:00,68.1,59.1,30.05,West,269,6.0,12.0,73,0.00,,,0.01,Wunderground v.1.13,2013-04-29 18:09:00,
2013-04-29 14:14:00,69.1,59.7,30.05,WNW,282,5.0,9.0,72,0.00,,,0.01,Wunderground v.1.13,2013-04-29 18:14:00,
2013-04-29 14:20:00,70.3,60.1,30.05,NW,309,4.0,7.0,70,0.00,,,0.01,Wunderground v.1.13,2013-04-29 18:20:00,
2013-04-29 14:25:00,70.2,59.1,30.05,NW,320,4.0,5.0,68,0.00,,,0.01,Wunderground v.1.13,2013-04-29 18:25:00,
2013-04-29 14:31:00,69.9,59.3,30.04,NW,305,4.0,8.0,69,0.00,,,0.01,Wunderground v.1.13,2013-04-29 18:31:00,
2013-04-29 14:37:00,69.9,58.0,30.04,NW,306,5.0,5.0,66,0.00,,,0.01,Wunderground v.1.13,2013-04-29 18:37:00,
2013-04-29 14:43:00,69.9,58.4,30.04,WNW,292,6.0,8.0,67,0.00,,,0.01,Wunderground v.1.13,2013-04-29 18:43:00,
2013-04-29 14:48:00,69.8,57.9,30.04,WNW,303,6.0,7.0,66,0.00,,,0.01,Wunderground v.1.13,2013-04-29 18:48:00,
2013-04-29 14:53:00,69.2,56.9,30.04,WNW,301,6.0,9.0,65,0.00,,,0.01,Wunderground v.1.13,2013-04-29 18:53:00,
2013-04-29 14:59:00,69.3,57.9,30.04,WNW,292,6.0,10.0,67,0.00,,,0.01,Wunderground v.1.13,2013-04-29 18:59:00,
2013-04-29 15:05:00,70.1,58.2,30.03,WNW,290,6.0,6.0,66,0.00,,,0.01,Wunderground v.1.13,2013-04-29 19:05:00,
2013-04-29 15:10:00,70.9,59.4,30.03,WNW,287,4.0,4.0,67,0.00,,,0.01,Wunderground v.1.13,2013-04-29 19:10:00,
2013-04-29 15:16:00,71.3,58.9,30.03,WNW,293,4.0,10.0,65,0.00,,,0.01,Wunderground v.1.13,2013-04-29 19:16:00,
2013-04-29 15:22:00,71.2,56.6,30.03,WNW,302,5.0,6.0,60,0.00,,,0.01,Wunderground v.1.13,2013-04-29 19:22:00,
2013-04-29 15:27:00,71.3,57.6,30.02,NW,325,5.0,6.0,62,0.00,,,0.01,Wunderground v.1.13,2013-04-29 19:27:00,
2013-04-29 15:33:00,71.0,56.4,30.02,WNW,300,5.0,5.0,60,0.00,,,0.01,Wunderground v.1.13,2013-04-29 19:33:00,
2013-04-29 15:39:00,70.9,56.8,30.02,NW,315,4.0,9.0,61,0.00,,,0.01,Wunderground v.1.13,2013-04-29 19:39:00,
2013-04-29 15:45:00,71.3,57.6,30.02,NW,317,4.0,6.0,62,0.00,,,0.01,Wunderground v.1.13,2013-04-29 19:45:00,
2013-04-29 15:50:00,71.0,56.4,30.01,NW,316,3.0,5.0,60,0.00,,,0.01,Wunderground v.1.13,2013-04-29 19:50:00,
2013-04-29 15:56:00,70.6,57.4,30.01,NW,326,3.0,4.0,63,0.00,,,0.01,Wunderground v.1.13,2013-04-29 19:56:00,
2013-04-29 16:01:00,70.7,56.6,30.01,WNW,300,3.0,6.0,61,0.00,,,0.01,Wunderground v.1.13,2013-04-29 20:01:00,
2013-04-29 16:07:00,71.0,57.3,30.01,WNW,292,3.0,4.0,62,0.00,,,0.01,Wunderground v.1.13,2013-04-29 20:07:00,
2013-04-29 16:13:00,71.8,58.1,30.01,NW,321,3.0,10.0,62,0.00,,,0.01,Wunderground v.1.13,2013-04-29 20:13:00,
2013-04-29 16:19:00,71.7,56.6,30.00,NNW,332,5.0,6.0,59,0.00,,,0.01,Wunderground v.1.13,2013-04-29 20:19:00,
2013-04-29 16:24:00,71.5,57.3,30.00,WNW,300,5.0,11.0,61,0.00,,,0.01,Wunderground v.1.13,2013-04-29 20:24:00,
2013-04-29 16:30:00,71.5,56.4,30.00,NNW,342,5.0,5.0,59,0.00,,,0.01,Wunderground v.1.13,2013-04-29 20:30:00,
2013-04-29 16:36:00,71.4,56.8,30.00,WNW,294,5.0,11.0,60,0.00,,,0.01,Wunderground v.1.13,2013-04-29 20:36:00,
2013-04-29 16:42:00,71.6,56.5,30.00,NW,321,6.0,10.0,59,0.00,,,0.01,Wunderground v.1.13,2013-04-29 20:42:00,
2013-04-29 16:47:00,71.3,56.2,30.00,NNW,330,6.0,11.0,59,0.00,,,0.01,Wunderground v.1.13,2013-04-29 20:47:00,
2013-04-29 16:53:00,71.3,56.7,29.99,NW,307,5.0,9.0,60,0.00,,,0.01,Wunderground v.1.13,2013-04-29 20:53:00,
2013-04-29 16:58:00,71.5,56.9,29.99,WNW,294,5.0,9.0,60,0.00,,,0.01,Wunderground v.1.13,2013-04-29 20:58:00,
2013-04-29 17:03:00,71.7,57.5,29.99,WNW,294,5.0,6.0,61,0.00,,,0.01,Wunderground v.1.13,2013-04-29 21:03:00,
2013-04-29 17:09:00,71.9,55.8,29.99,WNW,289,5.0,8.0,57,0.00,,,0.01,Wunderground v.1.13,2013-04-29 21:09:00,
2013-04-29 17:15:00,71.7,56.1,29.99,WNW,303,5.0,5.0,58,0.00,,,0.01,Wunderground v.1.13,2013-04-29 21:15:00,
2013-04-29 17:21:00,71.4,55.9,29.99,NW,304,2.0,3.0,58,0.00,,,0.01,Wunderground v.1.13,2013-04-29 21:21:00,
2013-04-29 17:27:00,71.0,56.4,29.99,NNW,348,2.0,2.0,60,0.00,,,0.01,Wunderground v.1.13,2013-04-29 21:27:00,
2013-04-29 17:33:00,70.8,56.7,29.99,NNW,348,2.0,3.0,61,0.00,,,0.01,Wunderground v.1.13,2013-04-29 21:33:00,
2013-04-29 17:38:00,70.4,56.8,29.99,NNE,23,3.0,4.0,62,0.00,,,0.01,Wunderground v.1.13,2013-04-29 21:38:00,
2013-04-29 17:44:00,70.0,56.4,29.99,NNE,18,3.0,5.0,62,0.00,,,0.01,Wunderground v.1.13,2013-04-29 21:44:00,
2013-04-29 17:50:00,69.8,56.2,29.99,NNE,18,2.0,2.0,62,0.00,,,0.01,Wunderground v.1.13,2013-04-29 21:50:00,
2013-04-29 17:55:00,69.9,56.3,29.99,NNE,18,1.0,1.0,62,0.00,,,0.01,Wunderground v.1.13,2013-04-29 21:55:00,
2013-04-29 18:01:00,70.1,56.9,29.99,NNE,18,1.0,4.0,63,0.00,,,0.01,Wunderground v.1.13,2013-04-29 22:01:00,
2013-04-29 18:06:00,70.3,57.1,29.99,NNE,24,2.0,7.0,63,0.00,,,0.01,Wunderground v.1.13,2013-04-29 22:06:00,
2013-04-29 18:11:00,70.3,56.7,29.99,NNE,24,2.0,2.0,62,0.00,,,0.01,Wunderground v.1.13,2013-04-29 22:11:00,
2013-04-29 18:17:00,70.2,57.0,29.99,NNE,24,1.0,3.0,63,0.00,,,0.01,Wunderground v.1.13,2013-04-29 22:17:00,
2013-04-29 18:23:00,70.1,56.9,29.99,NNE,24,1.0,1.0,63,0.00,,,0.01,Wunderground v.1.13,2013-04-29 22:23:00,
2013-04-29 18:29:00,69.9,57.2,29.99,NNE,24,1.0,2.0,64,0.00,,,0.01,Wunderground v.1.13,2013-04-29 22:29:00,
2013-04-29 18:35:00,69.8,57.5,29.99,NNE,20,2.0,2.0,65,0.00,,,0.01,Wunderground v.1.13,2013-04-29 22:35:00,
2013-04-29 18:41:00,69.9,57.2,29.99,NNE,19,2.0,3.0,64,0.00,,,0.01,Wunderground v.1.13,2013-04-29 22:41:00,
2013-04-29 18:46:00,69.8,57.1,29.99,NNE,19,1.0,1.0,64,0.00,,,0.01,Wunderground v.1.13,2013-04-29 22:46:00,
2013-04-29 18:52:00,69.8,57.1,29.99,NNE,19,0.0,3.0,64,0.00,,,0.01,Wunderground v.1.13,2013-04-29 22:52:00,
2013-04-29 18:58:00,69.5,57.2,29.99,NNE,19,1.0,2.0,65,0.00,,,0.01,Wunderground v.1.13,2013-04-29 22:58:00,
2013-04-29 19:03:00,69.2,56.9,29.99,NNE,19,1.0,1.0,65,0.00,,,0.01,Wunderground v.1.13,2013-04-29 23:03:00,
2013-04-29 19:09:00,69.0,56.7,29.99,NNE,19,1.0,3.0,65,0.00,,,0.01,Wunderground v.1.13,2013-04-29 23:09:00,
2013-04-29 19:15:00,68.9,57.1,29.99,NNE,19,0.0,0.0,66,0.00,,,0.01,Wunderground v.1.13,2013-04-29 23:15:00,
2013-04-29 19:20:00,68.9,57.5,29.99,NNE,19,0.0,0.0,67,0.00,,,0.01,Wunderground v.1.13,2013-04-29 23:20:00,
2013-04-29 19:26:00,68.8,57.4,29.99,NNE,18,1.0,2.0,67,0.00,,,0.01,Wunderground v.1.13,2013-04-29 23:26:00,
2013-04-29 19:31:00,68.7,57.3,29.99,NNE,17,1.0,1.0,67,0.00,,,0.01,Wunderground v.1.13,2013-04-29 23:31:00,
2013-04-29 19:37:00,68.5,56.7,29.99,NNE,17,0.0,1.0,66,0.00,,,0.01,Wunderground v.1.13,2013-04-29 23:37:00,
2013-04-29 19:43:00,68.4,57.0,29.99,NNE,19,0.0,0.0,67,0.00,,,0.01,Wunderground v.1.13,2013-04-29 23:43:00,
2013-04-29 19:49:00,68.2,56.8,29.99,NNE,19,0.0,0.0,67,0.00,,,0.01,Wunderground v.1.13,2013-04-29 23:49:00,
2013-04-29 19:54:00,68.0,56.6,29.99,NNE,19,0.0,0.0,67,0.00,,,0.01,Wunderground v.1.13,2013-04-29 23:54:00,
2013-04-29 20:00:00,67.8,56.4,29.99,NNE,19,0.0,0.0,67,0.00,,,0.01,Wunderground v.1.13,2013-04-30 00:00:00,
2013-04-29 20:06:00,67.6,56.7,29.99,NNE,19,0.0,0.0,68,0.00,,,0.01,Wunderground v.1.13,2013-04-30 00:06:00,
2013-04-29 20:11:00,67.5,57.8,29.99,NNE,19,0.0,0.0,71,0.00,,,0.01,Wunderground v.1.13,2013-04-30 00:11:00,
2013-04-29 20:17:00,67.1,57.4,29.99,NNE,19,0.0,0.0,71,0.00,,,0.01,Wunderground v.1.13,2013-04-30 00:17:00,
2013-04-29 20:23:00,66.4,56.7,29.99,NNE,19,0.0,0.0,71,0.00,,,0.01,Wunderground v.1.13,2013-04-30 00:23:00,
2013-04-29 20:28:00,65.9,57.0,29.99,NNE,19,0.0,0.0,73,0.00,,,0.01,Wunderground v.1.13,2013-04-30 00:28:00,
2013-04-29 20:34:00,65.2,56.7,30.00,NNE,19,0.0,0.0,74,0.00,,,0.01,Wunderground v.1.13,2013-04-30 00:34:00,
2013-04-29 20:40:00,64.5,56.8,30.00,NNE,19,0.0,0.0,76,0.00,,,0.01,Wunderground v.1.13,2013-04-30 00:40:00,
2013-04-29 20:45:00,63.8,56.4,30.00,NNE,19,0.0,0.0,77,0.00,,,0.01,Wunderground v.1.13,2013-04-30 00:45:00,
2013-04-29 20:51:00,63.0,56.0,30.00,NNE,19,0.0,0.0,78,0.00,,,0.01,Wunderground v.1.13,2013-04-30 00:51:00,
2013-04-29 20:56:00,62.3,55.7,30.01,NNE,19,0.0,0.0,79,0.00,,,0.01,Wunderground v.1.13,2013-04-30 00:56:00,
2013-04-29 21:01:00,61.6,55.4,30.01,NNE,19,0.0,0.0,80,0.00,,,0.01,Wunderground v.1.13,2013-04-30 01:01:00,
2013-04-29 21:07:00,61.1,55.2,30.01,NNE,19,0.0,0.0,81,0.00,,,0.01,Wunderground v.1.13,2013-04-30 01:07:00,
2013-04-29 21:13:00,60.5,55.0,30.02,NNE,19,0.0,0.0,82,0.00,,,0.01,Wunderground v.1.13,2013-04-30 01:13:00,
2013-04-29 21:19:00,60.0,54.5,30.02,NNE,19,0.0,0.0,82,0.00,,,0.01,Wunderground v.1.13,2013-04-30 01:19:00,
2013-04-29 21:25:00,59.6,54.4,30.02,NNE,19,0.0,0.0,83,0.00,,,0.01,Wunderground v.1.13,2013-04-30 01:25:00,
2013-04-29 21:31:00,59.0,53.8,30.02,NNE,19,0.0,0.0,83,0.00,,,0.01,Wunderground v.1.13,2013-04-30 01:31:00,
2013-04-29 21:37:00,58.7,53.9,30.02,NNE,19,0.0,0.0,84,0.00,,,0.01,Wunderground v.1.13,2013-04-30 01:37:00,
2013-04-29 21:42:00,58.2,53.7,30.02,NNE,19,0.0,0.0,85,0.00,,,0.01,Wunderground v.1.13,2013-04-30 01:42:00,
2013-04-29 21:48:00,57.9,53.7,30.02,NNE,19,0.0,0.0,86,0.00,,,0.01,Wunderground v.1.13,2013-04-30 01:48:00,
2013-04-29 21:54:00,57.6,53.4,30.02,NNE,19,0.0,0.0,86,0.00,,,0.01,Wunderground v.1.13,2013-04-30 01:54:00,
2013-04-29 21:59:00,57.3,53.1,30.02,NNE,19,0.0,0.0,86,0.00,,,0.01,Wunderground v.1.13,2013-04-30 01:59:00,
2013-04-29 22:05:00,57.1,53.3,30.03,NNE,19,0.0,0.0,87,0.00,,,0.01,Wunderground v.1.13,2013-04-30 02:05:00,
2013-04-29 22:11:00,56.9,53.1,30.03,NNE,19,0.0,0.0,87,0.00,,,0.01,Wunderground v.1.13,2013-04-30 02:11:00,
2013-04-29 22:16:00,56.6,52.8,30.03,NNE,19,0.0,0.0,87,0.00,,,0.01,Wunderground v.1.13,2013-04-30 02:16:00,
2013-04-29 22:22:00,56.2,52.7,30.03,NNE,19,0.0,0.0,88,0.00,,,0.01,Wunderground v.1.13,2013-04-30 02:22:00,
2013-04-29 22:28:00,55.9,52.4,30.03,NNE,19,0.0,0.0,88,0.00,,,0.01,Wunderground v.1.13,2013-04-30 02:28:00,
2013-04-29 22:33:00,55.8,52.3,30.03,NNE,19,0.0,0.0,88,0.00,,,0.01,Wunderground v.1.13,2013-04-30 02:33:00,
2013-04-29 22:38:00,55.6,52.4,30.03,NNE,19,0.0,0.0,89,0.00,,,0.01,Wunderground v.1.13,2013-04-30 02:38:00,
2013-04-29 22:44:00,55.4,52.2,30.03,NNE,19,0.0,0.0,89,0.00,,,0.01,Wunderground v.1.13,2013-04-30 02:44:00,
2013-04-29 22:49:00,55.1,51.9,30.04,NNE,19,0.0,0.0,89,0.00,,,0.01,Wunderground v.1.13,2013-04-30 02:49:00,
2013-04-29 22:55:00,54.8,51.6,30.04,NNE,19,0.0,0.0,89,0.00,,,0.01,Wunderground v.1.13,2013-04-30 02:55:00,
2013-04-29 23:01:00,54.6,51.7,30.03,NNE,19,0.0,0.0,90,0.00,,,0.01,Wunderground v.1.13,2013-04-30 03:01:00,
2013-04-29 23:07:00,54.5,51.6,30.03,NNE,19,0.0,0.0,90,0.00,,,0.01,Wunderground v.1.13,2013-04-30 03:07:00,
2013-04-29 23:12:00,54.4,51.5,30.03,NNE,19,0.0,0.0,90,0.00,,,0.01,Wunderground v.1.13,2013-04-30 03:12:00,
2013-04-29 23:18:00,54.3,51.4,30.03,NNE,19,0.0,0.0,90,0.00,,,0.01,Wunderground v.1.13,2013-04-30 03:18:00,
2013-04-29 23:23:00,54.3,51.7,30.03,NNE,19,0.0,0.0,91,0.00,,,0.01,Wunderground v.1.13,2013-04-30 03:23:00,
2013-04-29 23:29:00,54.2,51.6,30.03,NNE,19,0.0,0.0,91,0.00,,,0.01,Wunderground v.1.13,2013-04-30 03:29:00,
2013-04-29 23:34:00,54.1,51.5,30.03,NNE,19,0.0,0.0,91,0.00,,,0.01,Wunderground v.1.13,2013-04-30 03:34:00,
2013-04-29 23:39:00,54.0,51.4,30.03,NNE,19,0.0,0.0,91,0.00,,,0.01,Wunderground v.1.13,2013-04-30 03:39:00,
2013-04-29 23:45:00,53.9,51.3,30.03,NNE,19,0.0,0.0,91,0.00,,,0.01,Wunderground v.1.13,2013-04-30 03:45:00,
2013-04-29 23:50:00,53.9,51.3,30.03,NNE,19,0.0,0.0,91,0.00,,,0.01,Wunderground v.1.13,2013-04-30 03:50:00,
2013-04-29 23:56:00,53.9,51.3,30.03,NNE,19,0.0,0.0,91,0.00,,,0.01,Wunderground v.1.13,2013-04-30 03:56:00,